Flag for Canada Weather past 2 weeks in Conception Bay South, Newfoundland and Labrador, Canada

Now
55 °F

Broken clouds.


Feels Like: 53 °F
Forecast: 52 / 63 °F
Wind: 9 mph from West

Location: St. John's

Current Time: Sep 18, 2014 at 9:42:19 AM

Latest Report: Sep 18, 2014 at 8:30 AM


Visibility: 15 mi

Pressure: 29.99 "Hg

Humidity: 88%

Dew point: 52 °F

Location of Conception Bay SouthLocation

Historic Weather in Conception Bay South — Graph

°F

Conception Bay South temperature yesterday

Maximum temperature yesterday: 63 °F (at 12:30 PM)
Minimum temperature yesterday: 45 °F (at 6:30 AM)
Average temperature yesterday: 55 °F

Past Weeks' High & Low Weather Summary

 TemperatureHumidityPressure
High77 °F (Sep 6, 1:30 PM)100% (Sep 3, 8:30 PM)30.49 "Hg (Sep 3, 8:30 PM)
Low39 °F (Sep 14, 3:30 AM)42% (Sep 8, 1:30 PM)29.69 "Hg (Sep 12, 4:30 PM)
Average58 °F85%30.04 "Hg
* Reported Sep 3 8:30 AM — Sep 18 8:30 AM, Conception Bay South, Weather by CustomWeather, © 2014

Note: Actual official high and low records may vary slightly from our data, if they occured in-between our weather recording intervals... More about our weather records

Advertising

Conception Bay South weather history for previous 24 hours

 ConditionsComfort  
Time TempWeatherWind HumidityBarometerVisibility
8:30 AM
Sep 18
55 °FBroken clouds.9 mph88%29.99 "Hg15 mi
7:30 AM54 °FPartly sunny.8 mph94%29.99 "Hg15 mi
6:30 AM54 °FLow clouds.12 mph94%29.98 "Hg15 mi
5:30 AM54 °FOvercast.10 mph94%29.98 "Hg15 mi
4:30 AM54 °FOvercast.10 mph94%29.98 "Hg15 mi
3:30 AM55 °FOvercast.10 mph88%29.98 "Hg15 mi
2:30 AM55 °FPassing clouds.10 mph82%29.98 "Hg15 mi
1:30 AM55 °FMostly cloudy.7 mph82%29.97 "Hg15 mi
12:30 AM55 °FPassing clouds.8 mph82%29.97 "Hg15 mi
11:30 PM
Sep 17
55 °FPassing clouds.6 mph88%29.96 "Hg15 mi
10:30 PM55 °FPassing clouds.6 mph88%29.95 "Hg15 mi
9:30 PM55 °FPassing clouds.8 mph88%29.95 "Hg15 mi
8:30 PM55 °FPassing clouds.7 mph88%29.94 "Hg15 mi
7:30 PM55 °FScattered clouds.7 mph82%29.93 "Hg15 mi
6:30 PM59 °FPartly sunny.12 mph77%29.92 "Hg15 mi
5:30 PM61 °FPartly sunny.9 mph72%29.91 "Hg15 mi
4:30 PM63 °FPartly sunny.7 mph68%29.90 "Hg15 mi
3:30 PM61 °FPartly sunny.12 mph72%29.91 "Hg15 mi
2:30 PM63 °FScattered clouds.9 mph64%29.91 "Hg15 mi
1:30 PM63 °FScattered clouds.9 mph56%29.92 "Hg15 mi
12:30 PM63 °FPassing clouds.13 mph56%29.93 "Hg15 mi
11:30 AM59 °FPassing clouds.6 mph59%29.93 "Hg15 mi
10:30 AM59 °FScattered clouds.8 mph63%29.94 "Hg15 mi
9:30 AM57 °FScattered clouds.5 mph72%29.94 "Hg15 mi
Weather by CustomWeather, © 2014

See weather overviewHow to use our weather pages